When you browse on this site, cookies collect data to enhance your experience and personalize the content and advertising you see.
Visit our Privacy Policy to learn more. By continuing to use the site, you agree to this use of cookies and data.
  • In Hungary
  • List of Countries
  • For 7 days
  • Water Temperature
  • Satellite Maps
  • Weather Map
  • News
  • Weather Widgets
  • user-avatar
    Login

    Hourly Weather Canillo

    Today, 23 March, Saturday

    Time Temperature Precipitation Wind Pressure Humidity
    00:00 +2°C° 0 mm 1 mps 622 mmHg 76%
    01:00 +2°C° 0 mm 1 mps 621 mmHg 75%
    02:00 +2°C° 0 mm 1 mps 621 mmHg 75%
    03:00 +2°C° 0 mm 1 mps 621 mmHg 74%
    04:00 +1°C° 0 mm 1 mps 621 mmHg 72%
    05:00 +1°C° 0 mm 1 mps 621 mmHg 71%
    06:00 +1°C° 0 mm 1 mps 621 mmHg 69%
    07:00 +4°C° 0 mm 1 mps 622 mmHg 61%
    08:00 +6°C° 0 mm 0 mps 623 mmHg 54%
    09:00 +9°C° 0 mm 0 mps 624 mmHg 46%
    10:00 +10°C° 0 mm 0 mps 625 mmHg 43%
    11:00 +12°C° 0 mm 1 mps 625 mmHg 40%
    12:00 +13°C° 0 mm 1 mps 625 mmHg 38%
    13:00 +13°C° 0 mm 1 mps 625 mmHg 39%
    14:00 +13°C° 0 mm 1 mps 624 mmHg 40%
    15:00 +12°C° 0 mm 1 mps 624 mmHg 41%
    16:00 +11°C° 0 mm 1 mps 623 mmHg 49%
    17:00 +9°C° 0 mm 1 mps 622 mmHg 57%
    18:00 +7°C° 0 mm 1 mps 621 mmHg 65%
    19:00 +6°C° 0 mm 1 mps 621 mmHg 68%
    20:00 +5°C° 0 mm 1 mps 621 mmHg 71%
    21:00 +4°C° 0 mm 1 mps 621 mmHg 74%
    22:00 +4°C° 0 mm 1 mps 621 mmHg 73%
    23:00 +4°C° 0 mm 1 mps 621 mmHg 72%

    Tomorrow, 24 March, Sunday

    Time Temperature Precipitation Wind Pressure Humidity
    00:00 +4°C° 0 mm 1 mps 621 mmHg 71%
    01:00 +4°C° 0 mm 1 mps 620 mmHg 69%
    02:00 +4°C° 0 mm 1 mps 620 mmHg 67%
    03:00 +4°C° 0 mm 1 mps 620 mmHg 64%
    04:00 +4°C° 0 mm 1 mps 620 mmHg 63%
    05:00 +4°C° 0 mm 1 mps 620 mmHg 61%
    06:00 +4°C° 0 mm 1 mps 620 mmHg 60%
    07:00 +5°C° 0 mm 0 mps 621 mmHg 54%
    08:00 +7°C° 0 mm 0 mps 622 mmHg 47%
    09:00 +9°C° 0 mm 0 mps 623 mmHg 41%
    10:00 +11°C° 0 mm 1 mps 624 mmHg 39%
    11:00 +12°C° 0 mm 1 mps 624 mmHg 38%
    12:00 +13°C° 0 mm 1 mps 624 mmHg 36%
    13:00 +13°C° 0.1 mm 1 mps 624 mmHg 39%
    14:00 +12°C° 0.1 mm 1 mps 623 mmHg 43%
    15:00 +12°C° 0.1 mm 1 mps 622 mmHg 46%
    16:00 +10°C° 0.3 mm 1 mps 622 mmHg 56%
    17:00 +9°C° 0.3 mm 1 mps 621 mmHg 66%
    18:00 +7°C° 0.3 mm 1 mps 620 mmHg 76%
    19:00 +6°C° 0.1 mm 1 mps 620 mmHg 81%
    20:00 +5°C° 0.1 mm 1 mps 620 mmHg 85%
    21:00 +4°C° 0.1 mm 1 mps 620 mmHg 90%
    22:00 +4°C° 0 mm 1 mps 620 mmHg 91%
    23:00 +3°C° 0 mm 1 mps 619 mmHg 91%

    Day after tomorrow, 25 March, Monday

    Time Temperature Precipitation Wind Pressure Humidity
    00:00 +3°C° 0 mm 1 mps 619 mmHg 92%
    01:00 +2°C° 0 mm 1 mps 619 mmHg 91%
    02:00 +2°C° 0 mm 1 mps 619 mmHg 90%
    03:00 +2°C° 0 mm 1 mps 618 mmHg 89%
    04:00 +2°C° 0 mm 1 mps 618 mmHg 87%
    05:00 +1°C° 0 mm 1 mps 618 mmHg 85%
    06:00 +1°C° 0 mm 1 mps 618 mmHg 83%
    07:00 +3°C° 0 mm 1 mps 619 mmHg 74%
    08:00 +5°C° 0 mm 1 mps 620 mmHg 65%
    09:00 +6°C° 0 mm 2 mps 621 mmHg 57%
    10:00 +8°C° 0 mm 2 mps 621 mmHg 55%
    11:00 +9°C° 0 mm 2 mps 621 mmHg 53%
    12:00 +10°C° 0 mm 2 mps 622 mmHg 51%
    13:00 +9°C° 0.1 mm 2 mps 621 mmHg 57%
    14:00 +8°C° 0.1 mm 2 mps 620 mmHg 63%
    15:00 +7°C° 0.1 mm 3 mps 619 mmHg 69%
    16:00 +4°C° 0 mm 3 mps 618 mmHg 73%
    17:00 +3°C° 0 mm 3 mps 618 mmHg 78%
    18:00 +2°C° 0 mm 3 mps 617 mmHg 82%
    19:00 +1°C° 0 mm 2 mps 617 mmHg 81%
    20:00 -1°C° 0 mm 2 mps 617 mmHg 80%
    21:00 -2°C° 0 mm 2 mps 617 mmHg 79%
    22:00 -2°C° 0 mm 3 mps 618 mmHg 82%
    23:00 -2°C° 0 mm 3 mps 618 mmHg 85%

    26 March, Tuesday

    Time Temperature Precipitation Wind Pressure Humidity
    00:00 -2°C° 0 mm 3 mps 618 mmHg 89%
    01:00 -2°C° 0 mm 3 mps 618 mmHg 88%
    02:00 -2°C° 0 mm 3 mps 618 mmHg 86%
    03:00 -4°C° 0 mm 3 mps 618 mmHg 85%
    04:00 -4°C° 0 mm 3 mps 618 mmHg 83%
    05:00 -5°C° 0 mm 3 mps 617 mmHg 81%
    06:00 -6°C° 0 mm 3 mps 617 mmHg 79%
    07:00 -2°C° 0 mm 3 mps 619 mmHg 61%
    08:00 0°C° 0 mm 3 mps 620 mmHg 43%
    09:00 +2°C° 0 mm 3 mps 621 mmHg 25%
    10:00 +4°C° 0 mm 3 mps 622 mmHg 23%
    11:00 +5°C° 0 mm 3 mps 622 mmHg 21%
    12:00 +7°C° 0 mm 2 mps 623 mmHg 19%
    13:00 +7°C° 0 mm 2 mps 623 mmHg 22%
    14:00 +7°C° 0 mm 2 mps 622 mmHg 24%
    15:00 +7°C° 0 mm 2 mps 622 mmHg 26%
    16:00 +5°C° 0 mm 2 mps 621 mmHg 35%
    17:00 +3°C° 0 mm 2 mps 621 mmHg 43%
    18:00 +2°C° 0 mm 1 mps 620 mmHg 51%
    19:00 +1°C° 0 mm 1 mps 620 mmHg 50%
    20:00 0°C° 0 mm 1 mps 620 mmHg 49%
    21:00 -1°C° 0 mm 1 mps 620 mmHg 48%
    22:00 -1°C° 0 mm 1 mps 620 mmHg 46%
    23:00 -1°C° 0 mm 1 mps 620 mmHg 44%

    27 March, Wednesday

    Time Temperature Precipitation Wind Pressure Humidity
    00:00 -1°C° 0 mm 1 mps 620 mmHg 43%
    01:00 -1°C° 0 mm 1 mps 620 mmHg 43%
    02:00 -1°C° 0 mm 1 mps 620 mmHg 43%
    03:00 -1°C° 0 mm 1 mps 620 mmHg 44%
    04:00 -1°C° 0 mm 1 mps 620 mmHg 44%
    05:00 -1°C° 0 mm 1 mps 620 mmHg 44%
    06:00 -1°C° 0 mm 1 mps 620 mmHg 45%
    07:00 +2°C° 0 mm 1 mps 622 mmHg 39%
    08:00 +5°C° 0 mm 1 mps 623 mmHg 33%
    09:00 +8°C° 0 mm 1 mps 624 mmHg 27%
    10:00 +9°C° 0 mm 1 mps 625 mmHg 26%
    11:00 +10°C° 0 mm 1 mps 625 mmHg 26%
    12:00 +12°C° 0 mm 1 mps 625 mmHg 26%
    13:00 +10°C° 0 mm 2 mps 625 mmHg 28%
    14:00 +10°C° 0 mm 2 mps 624 mmHg 31%
    15:00 +9°C° 0 mm 2 mps 624 mmHg 34%
    16:00 +7°C° 0 mm 2 mps 623 mmHg 43%
    17:00 +6°C° 0 mm 1 mps 622 mmHg 53%
    18:00 +4°C° 0 mm 1 mps 621 mmHg 62%
    19:00 +3°C° 0 mm 1 mps 621 mmHg 66%
    20:00 +2°C° 0 mm 1 mps 621 mmHg 71%
    21:00 +1°C° 0 mm 1 mps 621 mmHg 75%
    22:00 +1°C° 0 mm 1 mps 621 mmHg 71%
    23:00 +1°C° 0 mm 1 mps 621 mmHg 66%

    28 March, Thursday

    Time Temperature Precipitation Wind Pressure Humidity
    00:00 +1°C° 0 mm 1 mps 621 mmHg 62%
    01:00 +1°C° 0 mm 1 mps 621 mmHg 59%
    02:00 0°C° 0 mm 1 mps 621 mmHg 56%
    03:00 0°C° 0 mm 1 mps 621 mmHg 54%
    04:00 0°C° 0 mm 1 mps 621 mmHg 55%
    05:00 0°C° 0 mm 1 mps 621 mmHg 56%
    06:00 0°C° 0 mm 1 mps 621 mmHg 57%
    07:00 +3°C° 0 mm 1 mps 622 mmHg 50%
    08:00 +5°C° 0 mm 1 mps 623 mmHg 44%
    09:00 +8°C° 0 mm 1 mps 624 mmHg 37%
    10:00 +9°C° 0 mm 1 mps 625 mmHg 37%
    11:00 +10°C° 0 mm 1 mps 625 mmHg 36%
    12:00 +11°C° 0 mm 1 mps 625 mmHg 35%
    13:00 +10°C° 0.1 mm 1 mps 625 mmHg 41%
    14:00 +9°C° 0.1 mm 1 mps 624 mmHg 46%
    15:00 +8°C° 0.1 mm 1 mps 623 mmHg 52%
    16:00 +7°C° 0.1 mm 1 mps 623 mmHg 59%
    17:00 +5°C° 0.1 mm 1 mps 623 mmHg 66%
    18:00 +4°C° 0.1 mm 1 mps 623 mmHg 73%
    19:00 +4°C° 0.1 mm 1 mps 623 mmHg 76%
    20:00 +3°C° 0.1 mm 1 mps 623 mmHg 80%
    21:00 +2°C° 0.1 mm 1 mps 623 mmHg 83%
    22:00 +2°C° 0 mm 1 mps 623 mmHg 84%
    23:00 +2°C° 0 mm 1 mps 623 mmHg 85%
    Show more